| time (UTC) | temp C | wind direction | speed KPH | gust KPH | rain 1hr cm | rain 24hr cm | rain mn cm | humidity % | barometer mb |
| 20260505181129 | 15 | 257 | 0.0 | 1.6 | 0.00 | 0.13 | 0.13 | 68 | 1008.2 |
| 20260505180623 | 15 | 257 | 0.0 | 0.0 | 0.00 | 0.13 | 0.13 | 67 | 1008.2 |
| 20260505180116 | 15 | 257 | 0.0 | 0.0 | 0.00 | 0.13 | 0.13 | 66 | 1008.1 |
| 20260505175611 | 15 | 257 | 0.0 | 1.6 | 0.00 | 0.13 | 0.13 | 65 | 1008.2 |
| 20260505175104 | 15 | 257 | 0.0 | 3.2 | 0.00 | 0.13 | 0.13 | 65 | 1008.2 |
| 20260505174559 | 15 | 257 | 0.0 | 9.7 | 0.00 | 0.13 | 0.13 | 64 | 1008.3 |
| 20260505174053 | 16 | 249 | 1.6 | 14.5 | 0.00 | 0.13 | 0.13 | 63 | 1008.3 |
| 20260505173858 | 16 | 221 | 1.6 | 14.5 | 0.00 | 0.13 | 0.13 | 62 | 1008.3 |
| 20260505173814 | 16 | 273 | 4.8 | 19.3 | 0.00 | 0.13 | 0.13 | 65 | 1008.1 |
| 20260505172535 | 16 | 273 | 8.0 | 20.9 | 0.00 | 0.13 | 0.13 | 63 | 1008.2 |
| 20260505172029 | 16 | 272 | 8.0 | 20.9 | 0.00 | 0.13 | 0.13 | 62 | 1008.0 |
| 20260505171523 | 16 | 259 | 6.4 | 14.5 | 0.00 | 0.13 | 0.13 | 61 | 1007.8 |
| 20260505171017 | 16 | 226 | 4.8 | 12.9 | 0.00 | 0.13 | 0.13 | 61 | 1007.8 |
| 20260505170511 | 16 | 224 | 3.2 | 12.9 | 0.00 | 0.13 | 0.13 | 61 | 1007.6 |
| 20260505170005 | 16 | 218 | 4.8 | 11.3 | 0.00 | 0.13 | 0.13 | 60 | 1007.8 |
| 20260505165942 | 16 | 273 | 6.4 | 11.3 | 0.00 | 0.13 | 0.13 | 60 | 1007.8 |
| 20260505164953 | 16 | 227 | 8.0 | 17.7 | 0.00 | 0.13 | 0.13 | 59 | 1007.8 |
| 20260505164446 | 16 | 242 | 8.0 | 17.7 | 0.00 | 0.13 | 0.13 | 59 | 1007.8 |
| 20260505163941 | 17 | 197 | 8.0 | 19.3 | 0.00 | 0.15 | 0.13 | 57 | 1007.7 |
| 20260505163435 | 17 | 215 | 9.7 | 22.5 | 0.00 | 0.15 | 0.13 | 57 | 1007.7 |
| 20260505163411 | 17 | 211 | 9.7 | 22.5 | 0.00 | 0.15 | 0.13 | 56 | 1007.7 |
| 20260505162423 | 17 | 255 | 8.0 | 19.3 | 0.00 | 0.15 | 0.13 | 56 | 1007.7 |
| 20260505162357 | 17 | 242 | 8.0 | 16.1 | 0.00 | 0.15 | 0.13 | 57 | 1007.5 |
| 20260505161410 | 17 | 221 | 6.4 | 16.1 | 0.00 | 0.18 | 0.13 | 56 | 1007.5 |
| 20260505160905 | 18 | 227 | 4.8 | 16.1 | 0.00 | 0.20 | 0.13 | 56 | 1007.5 |
| 20260505160359 | 18 | 249 | 3.2 | 12.9 | 0.00 | 0.20 | 0.13 | 57 | 1007.6 |
| 20260505152854 | 17 | 47 | 0.0 | 6.4 | 0.00 | 0.36 | 0.13 | 64 | 1007.6 |
| 20260505152352 | 16 | 281 | 0.0 | 0.0 | 0.00 | 0.38 | 0.13 | 66 | 1007.7 |
| 20260505151849 | 16 | 281 | 1.6 | 8.0 | 0.00 | 0.41 | 0.13 | 67 | 1007.6 |
| 20260505151348 | 16 | 281 | 1.6 | 12.9 | 0.00 | 0.43 | 0.13 | 67 | 1007.7 |
| 20260505150846 | 16 | 281 | 4.8 | 14.5 | 0.00 | 0.43 | 0.13 | 66 | 1007.8 |
| 20260505150345 | 16 | 229 | 3.2 | 14.5 | 0.00 | 0.46 | 0.13 | 63 | 1007.7 |
| 20260505140339 | 17 | 265 | 4.8 | 12.9 | 0.00 | 0.48 | 0.13 | 64 | 1007.5 |
| 20260505124833 | 17 | 167 | 0.0 | 0.0 | 0.00 | 0.48 | 0.13 | 80 | 1007.7 |
| 20260505124333 | 16 | 173 | 0.0 | 0.0 | 0.00 | 0.48 | 0.13 | 74 | 1007.7 |
| 20260505124315 | 16 | 192 | 0.0 | 0.0 | 0.00 | 0.48 | 0.13 | 74 | 1007.7 |
| 20260505123336 | 17 | 192 | 0.0 | 0.0 | 0.00 | 0.48 | 0.13 | 75 | 1007.7 |
| 20260505122832 | 17 | 190 | 0.0 | 0.0 | 0.00 | 0.48 | 0.13 | 76 | 1007.8 |
| 20260505122326 | 17 | 139 | 0.0 | 0.0 | 0.00 | 0.48 | 0.13 | 77 | 1007.8 |
| 20260505121820 | 16 | 51 | 0.0 | 0.0 | 0.00 | 0.48 | 0.13 | 77 | 1007.8 |
| 20260505121313 | 16 | 48 | 0.0 | 0.0 | 0.00 | 0.48 | 0.13 | 75 | 1007.9 |
| 20260505120808 | 16 | 41 | 0.0 | 0.0 | 0.00 | 0.48 | 0.13 | 76 | 1007.9 |
| 20260505120302 | 16 | 43 | 0.0 | 0.0 | 0.00 | 0.48 | 0.13 | 78 | 1007.8 |
| 20260505120238 | 16 | 42 | 0.0 | 0.0 | 0.00 | 0.48 | 0.13 | 78 | 1007.9 |
| 20260505115250 | 16 | 42 | 0.0 | 0.0 | 0.00 | 0.48 | 0.13 | 76 | 1008.0 |
| 20260505114744 | 16 | 43 | 0.0 | 0.0 | 0.00 | 0.48 | 0.13 | 76 | 1008.0 |
| 20260505114238 | 16 | 44 | 0.0 | 0.0 | 0.00 | 0.48 | 0.13 | 75 | 1008.0 |
| 20260505113732 | 16 | 44 | 0.0 | 0.0 | 0.00 | 0.48 | 0.13 | 76 | 1008.1 |
| 20260505113714 | 16 | 304 | 0.0 | 0.0 | 0.00 | 0.48 | 0.13 | 79 | 1008.1 |
| 20260505112720 | 16 | 304 | 0.0 | 0.0 | 0.00 | 0.48 | 0.13 | 77 | 1008.2 |
| 20260505112650 | 16 | 326 | 0.0 | 0.0 | 0.00 | 0.48 | 0.13 | 78 | 1008.2 |
| 20260505111708 | 16 | 46 | 0.0 | 0.0 | 0.00 | 0.48 | 0.13 | 78 | 1008.4 |
| 20260505111514 | 16 | 46 | 0.0 | 0.0 | 0.00 | 0.48 | 0.13 | 79 | 1008.4 |
| 20260505111436 | 15 | 45 | 0.0 | 0.0 | 0.00 | 0.48 | 0.13 | 81 | 1008.5 |
| 20260505110505 | 15 | 46 | 0.0 | 0.0 | 0.00 | 0.48 | 0.13 | 82 | 1008.6 |
| 20260505110415 | 15 | 44 | 0.0 | 0.0 | 0.00 | 0.48 | 0.13 | 82 | 1008.5 |
| 20260505101556 | 13 | 259 | 0.0 | 0.0 | 0.00 | 0.48 | 0.13 | 83 | 1008.9 |
| 20260505101050 | 13 | 259 | 0.0 | 0.0 | 0.00 | 0.48 | 0.13 | 82 | 1008.8 |
| 20260505100543 | 13 | 259 | 0.0 | 0.0 | 0.00 | 0.48 | 0.13 | 80 | 1008.8 |
| 20260505100526 | 13 | 259 | 0.0 | 0.0 | 0.00 | 0.48 | 0.13 | 81 | 1008.8 |
| 20260505095532 | 13 | 259 | 0.0 | 0.0 | 0.00 | 0.48 | 0.13 | 78 | 1008.7 |
| 20260505095026 | 13 | 259 | 0.0 | 0.0 | 0.00 | 0.48 | 0.13 | 80 | 1008.8 |
| 20260505094519 | 13 | 259 | 0.0 | 0.0 | 0.00 | 0.48 | 0.13 | 84 | 1008.8 |
| 20260505094239 | 13 | 259 | 0.0 | 0.0 | 0.00 | 0.48 | 0.13 | 83 | 1008.8 |
| 20260505093509 | 13 | 259 | 0.0 | 0.0 | 0.00 | 0.48 | 0.13 | 85 | 1008.8 |
| 20260505093002 | 13 | 215 | 0.0 | 0.0 | 0.00 | 0.48 | 0.13 | 86 | 1008.7 |
| 20260505092953 | 13 | 201 | 0.0 | 0.0 | 0.00 | 0.48 | 0.13 | 87 | 1008.7 |
| 20260505091950 | 13 | 201 | 0.0 | 0.0 | 0.00 | 0.48 | 0.13 | 88 | 1008.7 |
| 20260505091444 | 13 | 200 | 0.0 | 0.0 | 0.00 | 0.48 | 0.13 | 87 | 1008.7 |
| 20260505090938 | 13 | 200 | 0.0 | 0.0 | 0.00 | 0.48 | 0.13 | 87 | 1008.7 |
| 20260505090924 | 13 | 200 | 0.0 | 0.0 | 0.00 | 0.48 | 0.13 | 88 | 1008.8 |
| 20260505085925 | 13 | 135 | 0.0 | 0.0 | 0.00 | 0.48 | 0.13 | 87 | 1008.7 |
| 20260505085420 | 13 | 135 | 0.0 | 0.0 | 0.00 | 0.48 | 0.13 | 88 | 1008.8 |
| 20260505084913 | 13 | 135 | 0.0 | 0.0 | 0.00 | 0.48 | 0.13 | 89 | 1008.7 |
| 20260505084408 | 13 | 136 | 0.0 | 0.0 | 0.00 | 0.48 | 0.13 | 89 | 1008.7 |
| 20260505084356 | 12 | 136 | 0.0 | 0.0 | 0.00 | 0.48 | 0.13 | 90 | 1008.9 |
| 20260505083356 | 12 | 136 | 0.0 | 0.0 | 0.00 | 0.48 | 0.13 | 90 | 1008.8 |
| 20260505082851 | 12 | 136 | 0.0 | 0.0 | 0.00 | 0.48 | 0.13 | 90 | 1008.8 |
| 20260505082344 | 12 | 136 | 0.0 | 0.0 | 0.03 | 0.48 | 0.13 | 89 | 1008.9 |
| 20260505081838 | 12 | 136 | 0.0 | 0.0 | 0.03 | 0.48 | 0.13 | 89 | 1009.0 |
| 20260505081815 | 12 | 136 | 0.0 | 0.0 | 0.05 | 0.48 | 0.13 | 91 | 1009.0 |
| 20260505080826 | 12 | 136 | 0.0 | 0.0 | 0.05 | 0.48 | 0.13 | 91 | 1009.1 |
| 20260505080806 | 12 | 136 | 0.0 | 0.0 | 0.08 | 0.48 | 0.13 | 91 | 1009.3 |
| 20260505075814 | 12 | 136 | 0.0 | 0.0 | 0.08 | 0.48 | 0.13 | 92 | 1009.3 |
| 20260505075308 | 12 | 136 | 0.0 | 0.0 | 0.10 | 0.48 | 0.13 | 92 | 1009.3 |
| 20260505074802 | 11 | 136 | 0.0 | 0.0 | 0.10 | 0.48 | 0.13 | 93 | 1009.4 |
| 20260505074257 | 11 | 136 | 0.0 | 0.0 | 0.10 | 0.48 | 0.13 | 93 | 1009.4 |
| 20260505073749 | 11 | 136 | 0.0 | 0.0 | 0.10 | 0.48 | 0.13 | 92 | 1009.5 |
| 20260505073243 | 11 | 136 | 0.0 | 0.0 | 0.10 | 0.48 | 0.13 | 93 | 1009.6 |
| 20260505072738 | 11 | 136 | 0.0 | 0.0 | 0.10 | 0.48 | 0.13 | 93 | 1009.6 |
| 20260505072232 | 11 | 136 | 0.0 | 0.0 | 0.08 | 0.46 | 0.10 | 93 | 1009.7 |
| 20260505071726 | 11 | 136 | 0.0 | 0.0 | 0.08 | 0.43 | 0.08 | 93 | 1009.6 |
| 20260505071220 | 11 | 136 | 0.0 | 0.0 | 0.08 | 0.43 | 0.08 | 93 | 1009.7 |
| 20260505070714 | 11 | 136 | 0.0 | 0.0 | 0.05 | 0.43 | 0.05 | 93 | 1009.8 |
| 20260505070208 | 11 | 136 | 0.0 | 0.0 | 0.05 | 0.41 | 0.05 | 93 | 1009.8 |
| 20260505065929 | 11 | 136 | 0.0 | 0.0 | 0.05 | 0.41 | 0.05 | 93 | 1009.8 |
| 20260505065156 | 11 | 136 | 0.0 | 0.0 | 0.03 | 0.38 | 0.03 | 93 | 1009.7 |
| 20260505064650 | 11 | 136 | 0.0 | 0.0 | 0.03 | 0.38 | 0.03 | 93 | 1009.7 |
| 20260505064145 | 11 | 136 | 0.0 | 0.0 | 0.03 | 0.38 | 0.03 | 93 | 1009.8 |
| 20260505064118 | 11 | 136 | 0.0 | 0.0 | 0.03 | 0.38 | 0.03 | 93 | 1009.7 |
| 20260505063132 | 11 | 136 | 0.0 | 0.0 | 0.03 | 0.38 | 0.03 | 93 | 1009.7 |
| 20260505062626 | 11 | 136 | 0.0 | 0.0 | 0.03 | 0.38 | 0.03 | 93 | 1009.8 |
| 20260505062120 | 11 | 136 | 0.0 | 0.0 | 0.03 | 0.38 | 0.03 | 94 | 1009.8 |
| 20260505061614 | 11 | 136 | 0.0 | 0.0 | 0.00 | 0.36 | 0.00 | 94 | 1009.8 |
| 20260505061108 | 11 | 136 | 0.0 | 0.0 | 0.00 | 0.36 | 0.00 | 94 | 1009.8 |
| 20260505060602 | 11 | 136 | 0.0 | 0.0 | 0.00 | 0.36 | 0.00 | 94 | 1009.9 |
| 20260505060056 | 11 | 136 | 0.0 | 0.0 | 0.00 | 0.36 | 0.00 | 94 | 1009.8 |
| 20260505055550 | 11 | 136 | 0.0 | 0.0 | 0.00 | 0.36 | 0.00 | 94 | 1009.8 |
| 20260505055540 | 10 | 136 | 0.0 | 0.0 | 0.00 | 0.36 | 0.00 | 94 | 1009.9 |
| 20260505054547 | 10 | 136 | 0.0 | 0.0 | 0.00 | 0.36 | 0.00 | 95 | 1009.8 |
| 20260505054046 | 10 | 136 | 0.0 | 0.0 | 0.00 | 0.36 | 0.00 | 94 | 1009.8 |
| 20260505053543 | 10 | 136 | 0.0 | 0.0 | 0.00 | 0.36 | 0.00 | 94 | 1009.8 |
| 20260505053042 | 10 | 136 | 0.0 | 0.0 | 0.00 | 0.36 | 0.00 | 95 | 1009.9 |
| 20260505052538 | 10 | 136 | 0.0 | 0.0 | 0.00 | 0.36 | 0.00 | 95 | 1009.8 |
| 20260505052040 | 10 | 136 | 0.0 | 0.0 | 0.00 | 0.36 | 0.00 | 95 | 1009.7 |
| 20260505052022 | 10 | 136 | 0.0 | 0.0 | 0.00 | 0.36 | 0.00 | 95 | 1009.7 |
| 20260505051038 | 10 | 136 | 0.0 | 0.0 | 0.00 | 0.36 | 0.00 | 95 | 1009.7 |
| 20260505050535 | 10 | 136 | 0.0 | 0.0 | 0.00 | 0.36 | 0.00 | 95 | 1009.7 |
| 20260505041520 | 10 | 136 | 0.0 | 0.0 | 0.00 | 0.36 | 0.00 | 94 | 1009.8 |
| 20260505041022 | 10 | 136 | 0.0 | 0.0 | 0.00 | 0.36 | 0.00 | 95 | 1009.7 |
| 20260505040521 | 10 | 136 | 0.0 | 0.0 | 0.00 | 0.36 | 0.00 | 95 | 1009.8 |
| 20260505040022 | 10 | 136 | 0.0 | 0.0 | 0.00 | 0.36 | 0.00 | 95 | 1009.7 |
| 20260505035838 | 10 | 136 | 0.0 | 0.0 | 0.00 | 0.36 | 0.00 | 95 | 1009.7 |
| 20260505035746 | 10 | 136 | 0.0 | 0.0 | 0.00 | 0.36 | 0.00 | 95 | 1009.7 |
| 20260505034521 | 10 | 136 | 0.0 | 0.0 | 0.00 | 0.36 | 0.00 | 95 | 1009.6 |
| 20260505034021 | 10 | 136 | 0.0 | 0.0 | 0.00 | 0.36 | 0.00 | 95 | 1009.6 |
| 20260505033522 | 10 | 136 | 0.0 | 0.0 | 0.00 | 0.36 | 0.00 | 95 | 1009.7 |
| 20260505033018 | 10 | 136 | 0.0 | 0.0 | 0.00 | 0.36 | 0.00 | 95 | 1009.7 |
| 20260505032830 | 10 | 136 | 0.0 | 0.0 | 0.00 | 0.36 | 0.00 | 95 | 1009.8 |
| 20260505032746 | 10 | 136 | 0.0 | 0.0 | 0.00 | 0.36 | 0.00 | 95 | 1009.8 |
| 20260505031518 | 10 | 136 | 0.0 | 0.0 | 0.00 | 0.36 | 0.00 | 95 | 1009.8 |
| 20260505031017 | 10 | 136 | 0.0 | 0.0 | 0.00 | 0.36 | 0.00 | 95 | 1010.0 |
| 20260505030957 | 10 | 136 | 0.0 | 0.0 | 0.00 | 0.36 | 0.00 | 95 | 1010.1 |
| 20260505030016 | 10 | 136 | 0.0 | 0.0 | 0.00 | 0.36 | 0.00 | 95 | 1010.0 |
| 20260505025517 | 10 | 136 | 0.0 | 0.0 | 0.00 | 0.36 | 0.00 | 95 | 1010.0 |
| 20260505025017 | 10 | 136 | 0.0 | 0.0 | 0.00 | 0.36 | 0.00 | 94 | 1010.0 |
| 20260505024513 | 10 | 136 | 0.0 | 0.0 | 0.00 | 0.36 | 0.00 | 94 | 1010.0 |
| 20260505024456 | 10 | 136 | 0.0 | 0.0 | 0.00 | 0.36 | 0.00 | 94 | 1010.1 |
| 20260505023513 | 10 | 136 | 0.0 | 0.0 | 0.00 | 0.36 | 0.00 | 94 | 1010.0 |
| 20260505023013 | 10 | 136 | 0.0 | 0.0 | 0.00 | 0.36 | 0.00 | 94 | 1010.1 |
| 20260505022514 | 10 | 136 | 0.0 | 0.0 | 0.00 | 0.36 | 0.00 | 94 | 1010.2 |
| 20260505022015 | 10 | 136 | 0.0 | 0.0 | 0.00 | 0.36 | 0.00 | 94 | 1010.2 |
| 20260505021514 | 10 | 136 | 0.0 | 0.0 | 0.00 | 0.36 | 0.00 | 94 | 1010.2 |
| 20260505021015 | 10 | 136 | 0.0 | 0.0 | 0.00 | 0.36 | 0.00 | 94 | 1010.3 |
| 20260505020515 | 10 | 136 | 0.0 | 0.0 | 0.00 | 0.36 | 0.00 | 94 | 1010.3 |
| 20260505020006 | 10 | 136 | 0.0 | 0.0 | 0.00 | 0.36 | 0.00 | 94 | 1010.3 |
| 20260505015502 | 10 | 136 | 0.0 | 0.0 | 0.00 | 0.36 | 0.00 | 94 | 1010.3 |
| 20260505014956 | 10 | 136 | 0.0 | 0.0 | 0.00 | 0.36 | 0.00 | 94 | 1010.3 |
| 20260505014451 | 10 | 136 | 0.0 | 0.0 | 0.00 | 0.36 | 0.00 | 94 | 1010.3 |
| 20260505013944 | 10 | 136 | 0.0 | 0.0 | 0.00 | 0.36 | 0.00 | 94 | 1010.3 |
| 20260505013438 | 10 | 136 | 0.0 | 0.0 | 0.00 | 0.36 | 0.00 | 94 | 1010.3 |
| 20260505012932 | 10 | 136 | 0.0 | 0.0 | 0.00 | 0.36 | 0.00 | 94 | 1010.4 |
| 20260505012426 | 10 | 136 | 0.0 | 0.0 | 0.00 | 0.36 | 0.00 | 94 | 1010.4 |
| 20260505011921 | 10 | 136 | 0.0 | 0.0 | 0.00 | 0.36 | 0.00 | 94 | 1010.5 |
| 20260505011414 | 10 | 136 | 0.0 | 0.0 | 0.00 | 0.36 | 0.00 | 94 | 1010.6 |
| 20260505011402 | 10 | 136 | 0.0 | 0.0 | 0.00 | 0.36 | 0.00 | 94 | 1010.7 |
| 20260505010402 | 10 | 136 | 0.0 | 0.0 | 0.00 | 0.36 | 0.00 | 94 | 1010.7 |
| 20260505005856 | 10 | 136 | 0.0 | 0.0 | 0.00 | 0.36 | 0.00 | 94 | 1010.9 |
| 20260505005350 | 10 | 136 | 0.0 | 0.0 | 0.00 | 0.36 | 0.00 | 93 | 1010.9 |
| 20260505004844 | 10 | 136 | 0.0 | 0.0 | 0.00 | 0.36 | 0.00 | 93 | 1011.1 |
| 20260505004338 | 10 | 136 | 0.0 | 0.0 | 0.00 | 0.36 | 0.00 | 93 | 1011.1 |
| 20260505003832 | 10 | 136 | 0.0 | 0.0 | 0.00 | 0.36 | 0.00 | 93 | 1011.2 |
| 20260505003326 | 10 | 136 | 0.0 | 0.0 | 0.00 | 0.36 | 0.00 | 93 | 1011.2 |
| 20260505003309 | 10 | 136 | 0.0 | 0.0 | 0.00 | 0.36 | 0.00 | 93 | 1011.4 |
| 20260505002314 | 10 | 136 | 0.0 | 0.0 | 0.00 | 0.36 | 0.00 | 93 | 1011.4 |
| 20260505001808 | 10 | 136 | 0.0 | 0.0 | 0.00 | 0.36 | 0.00 | 93 | 1011.4 |
| 20260505001302 | 10 | 136 | 0.0 | 0.0 | 0.00 | 0.36 | 0.00 | 93 | 1011.4 |
| 20260505000756 | 10 | 136 | 0.0 | 0.0 | 0.00 | 0.36 | 0.00 | 93 | 1011.5 |
| 20260505000250 | 10 | 136 | 0.0 | 0.0 | 0.00 | 0.36 | 0.00 | 93 | 1011.5 |
| 20260504235744 | 10 | 136 | 0.0 | 0.0 | 0.00 | 0.36 | 0.00 | 94 | 1011.5 |
| 20260504235237 | 10 | 136 | 0.0 | 0.0 | 0.00 | 0.36 | 0.00 | 94 | 1011.8 |
| 20260504234732 | 10 | 136 | 0.0 | 0.0 | 0.00 | 0.36 | 0.00 | 94 | 1011.7 |
| 20260504234717 | 10 | 136 | 0.0 | 0.0 | 0.00 | 0.36 | 0.00 | 94 | 1011.7 |
| 20260504233720 | 10 | 136 | 0.0 | 0.0 | 0.00 | 0.36 | 0.00 | 94 | 1011.8 |
| 20260504233214 | 10 | 136 | 0.0 | 0.0 | 0.00 | 0.36 | 0.00 | 94 | 1011.8 |
| 20260504232708 | 10 | 136 | 0.0 | 0.0 | 0.00 | 0.36 | 0.00 | 94 | 1012.0 |
| 20260504232202 | 10 | 136 | 0.0 | 0.0 | 0.00 | 0.36 | 0.00 | 94 | 1012.0 |
| 20260504231656 | 10 | 136 | 0.0 | 0.0 | 0.00 | 0.36 | 0.00 | 93 | 1012.0 |
| 20260504231150 | 10 | 136 | 0.0 | 0.0 | 0.00 | 0.36 | 0.00 | 93 | 1012.2 |
| 20260504230644 | 10 | 136 | 0.0 | 0.0 | 0.00 | 0.36 | 0.00 | 93 | 1012.2 |
| 20260504230138 | 10 | 136 | 0.0 | 0.0 | 0.00 | 0.36 | 0.00 | 93 | 1012.1 |
| 20260504225633 | 10 | 135 | 0.0 | 0.0 | 0.00 | 0.36 | 0.00 | 93 | 1012.2 |
| 20260504225126 | 10 | 135 | 0.0 | 0.0 | 0.00 | 0.36 | 0.00 | 93 | 1012.2 |
| 20260504224621 | 10 | 135 | 0.0 | 0.0 | 0.00 | 0.36 | 0.00 | 93 | 1012.2 |
| 20260504224114 | 10 | 135 | 0.0 | 0.0 | 0.00 | 0.36 | 0.00 | 93 | 1012.1 |
| 20260504223608 | 11 | 135 | 0.0 | 0.0 | 0.00 | 0.36 | 0.00 | 93 | 1012.0 |
| 20260504223555 | 11 | 135 | 0.0 | 0.0 | 0.00 | 0.36 | 0.00 | 93 | 1012.1 |
| 20260504222556 | 11 | 135 | 0.0 | 0.0 | 0.00 | 0.36 | 0.00 | 93 | 1012.1 |
| 20260504222050 | 11 | 135 | 0.0 | 0.0 | 0.00 | 0.36 | 0.00 | 93 | 1012.2 |
| 20260504221544 | 11 | 135 | 0.0 | 0.0 | 0.00 | 0.36 | 0.00 | 93 | 1012.2 |
| 20260504221038 | 11 | 135 | 0.0 | 0.0 | 0.00 | 0.36 | 0.00 | 93 | 1012.2 |
| 20260504220532 | 11 | 135 | 0.0 | 0.0 | 0.00 | 0.36 | 0.00 | 93 | 1012.2 |
| 20260504220026 | 11 | 135 | 0.0 | 0.0 | 0.00 | 0.36 | 0.00 | 92 | 1012.1 |
| 20260504215520 | 11 | 134 | 0.0 | 0.0 | 0.00 | 0.36 | 0.36 | 92 | 1012.1 |
| 20260504215013 | 11 | 134 | 0.0 | 0.0 | 0.00 | 0.36 | 0.36 | 92 | 1012.2 |
| 20260504214508 | 11 | 134 | 0.0 | 0.0 | 0.00 | 0.36 | 0.36 | 92 | 1012.2 |
| 20260504214441 | 11 | 134 | 0.0 | 0.0 | 0.00 | 0.36 | 0.36 | 92 | 1012.2 |
| 20260504213456 | 11 | 134 | 0.0 | 0.0 | 0.00 | 0.36 | 0.36 | 92 | 1012.2 |
| 20260504212950 | 12 | 134 | 0.0 | 0.0 | 0.00 | 0.36 | 0.36 | 92 | 1012.2 |
| 20260504212445 | 12 | 134 | 0.0 | 0.0 | 0.00 | 0.36 | 0.36 | 92 | 1012.2 |
| 20260504211950 | 12 | 134 | 0.0 | 0.0 | 0.00 | 0.36 | 0.36 | 92 | 1012.2 |
| 20260504211433 | 12 | 134 | 0.0 | 0.0 | 0.00 | 0.36 | 0.36 | 92 | 1012.3 |
| 20260504210926 | 12 | 134 | 0.0 | 0.0 | 0.00 | 0.36 | 0.36 | 92 | 1012.4 |
| 20260504210905 | 12 | 134 | 0.0 | 0.0 | 0.00 | 0.36 | 0.36 | 92 | 1012.5 |
| 20260504205915 | 12 | 134 | 0.0 | 0.0 | 0.00 | 0.36 | 0.36 | 92 | 1012.4 |
| 20260504205408 | 12 | 134 | 0.0 | 0.0 | 0.00 | 0.36 | 0.36 | 92 | 1012.4 |
| 20260504204902 | 12 | 134 | 0.0 | 0.0 | 0.00 | 0.36 | 0.36 | 93 | 1012.5 |
| 20260504204356 | 12 | 134 | 0.0 | 0.0 | 0.00 | 0.36 | 0.36 | 93 | 1012.7 |
| 20260504203850 | 12 | 134 | 0.0 | 0.0 | 0.00 | 0.36 | 0.36 | 93 | 1012.8 |
| 20260504203834 | 13 | 5 | 0.0 | 0.0 | 0.00 | 0.36 | 0.36 | 93 | 1012.7 |
| 20260504202838 | 13 | 5 | 0.0 | 0.0 | 0.00 | 0.36 | 0.36 | 93 | 1012.8 |
| 20260504202333 | 13 | 5 | 0.0 | 0.0 | 0.00 | 0.36 | 0.36 | 93 | 1012.7 |
| 20260504201826 | 13 | 5 | 0.0 | 0.0 | 0.00 | 0.36 | 0.36 | 93 | 1012.7 |
| 20260504201809 | 13 | 5 | 0.0 | 0.0 | 0.00 | 0.36 | 0.36 | 93 | 1012.8 |
| 20260504200814 | 13 | 5 | 0.0 | 0.0 | 0.00 | 0.36 | 0.36 | 93 | 1012.8 |
| 20260504200308 | 13 | 5 | 0.0 | 0.0 | 0.00 | 0.36 | 0.36 | 93 | 1012.7 |
| 20260504195802 | 13 | 5 | 0.0 | 0.0 | 0.00 | 0.36 | 0.36 | 93 | 1012.8 |
| 20260504195256 | 13 | 5 | 0.0 | 0.0 | 0.00 | 0.36 | 0.36 | 93 | 1012.7 |
| 20260504194750 | 13 | 5 | 0.0 | 0.0 | 0.00 | 0.36 | 0.36 | 93 | 1012.6 |
| 20260504194245 | 13 | 5 | 0.0 | 0.0 | 0.00 | 0.36 | 0.36 | 93 | 1012.5 |
| 20260504194223 | 13 | 5 | 0.0 | 0.0 | 0.00 | 0.36 | 0.36 | 93 | 1012.5 |
| 20260504193232 | 13 | 5 | 0.0 | 0.0 | 0.00 | 0.36 | 0.36 | 93 | 1012.5 |
| 20260504192727 | 13 | 5 | 0.0 | 0.0 | 0.00 | 0.36 | 0.36 | 92 | 1012.4 |
| 20260504192220 | 13 | 5 | 0.0 | 0.0 | 0.00 | 0.36 | 0.36 | 92 | 1012.5 |
| 20260504192020 | 13 | 5 | 0.0 | 0.0 | 0.00 | 0.36 | 0.36 | 92 | 1012.5 |
| 20260504191932 | 13 | 5 | 0.0 | 0.0 | 0.00 | 0.36 | 0.36 | 92 | 1012.4 |
| 20260504190703 | 13 | 5 | 0.0 | 0.0 | 0.00 | 0.36 | 0.36 | 92 | 1012.4 |
| 20260504190156 | 13 | 5 | 0.0 | 0.0 | 0.00 | 0.36 | 0.36 | 92 | 1012.4 |
| 20260504185650 | 13 | 5 | 0.0 | 0.0 | 0.00 | 0.36 | 0.36 | 92 | 1012.3 |
| 20260504185144 | 13 | 5 | 0.0 | 0.0 | 0.00 | 0.36 | 0.36 | 92 | 1012.3 |
| 20260504184638 | 13 | 5 | 0.0 | 0.0 | 0.00 | 0.36 | 0.36 | 92 | 1012.3 |
| 20260504184612 | 13 | 5 | 0.0 | 0.0 | 0.00 | 0.36 | 0.36 | 92 | 1012.4 |
| 20260504183626 | 13 | 5 | 0.0 | 0.0 | 0.00 | 0.36 | 0.36 | 92 | 1012.5 |
| 20260504183120 | 13 | 5 | 0.0 | 0.0 | 0.00 | 0.36 | 0.36 | 92 | 1012.5 |
| 20260504182614 | 13 | 5 | 0.0 | 0.0 | 0.00 | 0.36 | 0.36 | 92 | 1012.5 |
| 20260504182108 | 13 | 5 | 0.0 | 0.0 | 0.00 | 0.36 | 0.36 | 92 | 1012.5 |
| 20260504181602 | 13 | 5 | 0.0 | 0.0 | 0.00 | 0.36 | 0.36 | 92 | 1012.5 |